contact:dominique.lefevre@mio.osupytheas.fr, maurice.libes@osupytheas.fr, didier.mallarino@osupytheas.fr
Project:EMSO http://www.emso-fr.org/EMSO-France
Depth: 2436.0 m
Title:EMSO Ligure Ouest : Data MII capteur MICROCAT
DateTime_Computer,Latitude,Longitude,Temperature,Conductivity,Pressure,DateTime_Instrument
DateTime_Computer,Latitude,Longitude,degC,S m-1,dbar,DateTime_Instrument
2020-01-27T00:01:32Z,42.805,6.029,13.3004,4.60007,2469.876,2020-1-27T02:02:05Z
2020-01-27T00:04:35Z,42.805,6.029,13.2999,4.60003,2469.89,2020-1-27T02:05:09Z
2020-01-27T00:07:38Z,42.805,6.029,13.3063,4.60006,2469.853,2020-1-27T02:08:12Z
2020-01-27T00:10:42Z,42.805,6.029,13.2990,4.60016,2469.853,2020-1-27T02:11:15Z
2020-01-27T00:13:45Z,42.805,6.029,13.3007,4.59996,2469.89,2020-1-27T02:14:18Z
2020-01-27T00:16:48Z,42.805,6.029,13.3008,4.59996,2469.853,2020-1-27T02:17:21Z
2020-01-27T00:19:51Z,42.805,6.029,13.3004,4.60001,2469.89,2020-1-27T02:20:25Z
2020-01-27T00:22:54Z,42.805,6.029,13.3022,4.60002,2469.867,2020-1-27T02:23:28Z
2020-01-27T00:25:58Z,42.805,6.029,13.3011,4.59989,2469.89,2020-1-27T02:26:31Z
2020-01-27T00:29:01Z,42.805,6.029,13.3006,4.59995,2469.83,2020-1-27T02:29:34Z
2020-01-27T00:32:04Z,42.805,6.029,13.2995,4.59996,2469.867,2020-1-27T02:32:37Z
2020-01-27T00:35:07Z,42.805,6.029,13.2991,4.59987,2469.853,2020-1-27T02:35:41Z
2020-01-27T00:38:10Z,42.805,6.029,13.3014,4.59991,2469.806,2020-1-27T02:38:44Z
2020-01-27T00:41:14Z,42.805,6.029,13.2999,4.60006,2469.853,2020-1-27T02:41:47Z
2020-01-27T00:44:17Z,42.805,6.029,13.3028,4.60007,2469.867,2020-1-27T02:44:50Z
2020-01-27T00:47:20Z,42.805,6.029,13.2991,4.60011,2469.853,2020-1-27T02:47:54Z
2020-01-27T00:50:23Z,42.805,6.029,13.3004,4.60006,2469.821,2020-1-27T02:50:57Z
2020-01-27T00:53:27Z,42.805,6.029,13.3000,4.59999,2469.806,2020-1-27T02:54:00Z
2020-01-27T00:56:30Z,42.805,6.029,13.3006,4.60009,2469.83,2020-1-27T02:57:03Z
2020-01-27T00:59:33Z,42.805,6.029,13.3002,4.59995,2469.844,2020-1-27T03:00:07Z
2020-01-27T01:02:36Z,42.805,6.029,13.3007,4.60002,2469.844,2020-1-27T03:03:10Z
2020-01-27T01:05:39Z,42.805,6.029,13.3029,4.59999,2469.806,2020-1-27T03:06:13Z
2020-01-27T01:08:43Z,42.805,6.029,13.3039,4.59996,2469.806,2020-1-27T03:09:16Z
2020-01-27T01:11:46Z,42.805,6.029,13.3021,4.60000,2469.83,2020-1-27T03:12:19Z
2020-01-27T01:14:49Z,42.805,6.029,13.3004,4.60022,2469.844,2020-1-27T03:15:22Z
2020-01-27T01:17:52Z,42.805,6.029,13.3022,4.60011,2469.783,2020-1-27T03:18:26Z
2020-01-27T01:20:55Z,42.805,6.029,13.3020,4.60017,2469.821,2020-1-27T03:21:29Z
2020-01-27T01:23:59Z,42.805,6.029,13.3021,4.60004,2469.844,2020-1-27T03:24:32Z
2020-01-27T01:27:02Z,42.805,6.029,13.3006,4.60002,2469.867,2020-1-27T03:27:35Z
2020-01-27T01:30:05Z,42.805,6.029,13.3013,4.59996,2469.793,2020-1-27T03:30:38Z
2020-01-27T01:33:08Z,42.805,6.029,13.3006,4.60003,2469.867,2020-1-27T03:33:42Z
2020-01-27T01:36:11Z,42.805,6.029,13.2995,4.60004,2469.844,2020-1-27T03:36:45Z
2020-01-27T01:39:15Z,42.805,6.029,13.3010,4.59996,2469.821,2020-1-27T03:39:48Z
2020-01-27T01:42:18Z,42.805,6.029,13.3004,4.60000,2469.844,2020-1-27T03:42:51Z
2020-01-27T01:45:21Z,42.805,6.029,13.2999,4.60003,2469.853,2020-1-27T03:45:54Z
2020-01-27T01:48:24Z,42.805,6.029,13.3039,4.60001,2469.783,2020-1-27T03:48:57Z
2020-01-27T01:51:27Z,42.805,6.029,13.3015,4.60000,2469.821,2020-1-27T03:52:01Z
2020-01-27T01:54:30Z,42.805,6.029,13.3007,4.59998,2469.83,2020-1-27T03:55:04Z
2020-01-27T01:57:34Z,42.805,6.029,13.2993,4.60000,2469.821,2020-1-27T03:58:07Z
2020-01-27T02:00:37Z,42.805,6.029,13.3004,4.60007,2469.821,2020-1-27T04:01:10Z
2020-01-27T02:03:40Z,42.805,6.029,13.3019,4.59999,2469.844,2020-1-27T04:04:14Z
2020-01-27T02:06:43Z,42.805,6.029,13.3003,4.59986,2469.83,2020-1-27T04:07:17Z
2020-01-27T02:09:47Z,42.805,6.029,13.3011,4.59988,2469.821,2020-1-27T04:10:20Z
2020-01-27T02:12:50Z,42.805,6.029,13.3011,4.59997,2469.83,2020-1-27T04:13:23Z
2020-01-27T02:15:53Z,42.805,6.029,13.3022,4.59994,2469.83,2020-1-27T04:16:26Z
2020-01-27T02:18:56Z,42.805,6.029,13.3002,4.60004,2469.821,2020-1-27T04:19:30Z
2020-01-27T02:21:59Z,42.805,6.029,13.3029,4.59996,2469.844,2020-1-27T04:22:33Z
2020-01-27T02:25:03Z,42.805,6.029,13.3024,4.60022,2469.806,2020-1-27T04:25:36Z
2020-01-27T02:28:06Z,42.805,6.029,13.3041,4.60008,2469.844,2020-1-27T04:28:39Z
2020-01-27T02:31:09Z,42.805,6.029,13.3038,4.60008,2469.797,2020-1-27T04:31:43Z
2020-01-27T02:34:12Z,42.805,6.029,13.3013,4.60003,2469.821,2020-1-27T04:34:46Z
2020-01-27T02:37:16Z,42.805,6.029,13.3005,4.59991,2469.821,2020-1-27T04:37:49Z
2020-01-27T02:40:19Z,42.805,6.029,13.3036,4.59998,2469.797,2020-1-27T04:40:52Z
2020-01-27T02:43:22Z,42.805,6.029,13.3035,4.60006,2469.83,2020-1-27T04:43:55Z
2020-01-27T02:46:25Z,42.805,6.029,13.3019,4.59996,2469.844,2020-1-27T04:46:59Z
2020-01-27T02:49:28Z,42.805,6.029,13.3016,4.59996,2469.844,2020-1-27T04:50:02Z
2020-01-27T02:52:32Z,42.805,6.029,13.3046,4.60001,2469.821,2020-1-27T04:53:05Z
2020-01-27T02:55:35Z,42.805,6.029,13.3009,4.60003,2469.806,2020-1-27T04:56:08Z
2020-01-27T02:58:38Z,42.805,6.029,13.3027,4.60003,2469.821,2020-1-27T04:59:11Z
2020-01-27T03:01:41Z,42.805,6.029,13.3014,4.59990,2469.797,2020-1-27T05:02:15Z
2020-01-27T03:04:44Z,42.805,6.029,13.3010,4.59996,2469.806,2020-1-27T05:05:18Z
2020-01-27T03:07:47Z,42.805,6.029,13.3018,4.60007,2469.844,2020-1-27T05:08:21Z
2020-01-27T03:10:51Z,42.805,6.029,13.3029,4.60019,2469.821,2020-1-27T05:11:24Z
2020-01-27T03:13:54Z,42.805,6.029,13.3034,4.60009,2469.821,2020-1-27T05:14:27Z
2020-01-27T03:16:57Z,42.805,6.029,13.3043,4.60014,2469.806,2020-1-27T05:17:31Z
2020-01-27T03:20:00Z,42.805,6.029,13.3028,4.60007,2469.821,2020-1-27T05:20:34Z
2020-01-27T03:23:04Z,42.805,6.029,13.3037,4.60010,2469.821,2020-1-27T05:23:37Z
2020-01-27T03:26:07Z,42.805,6.029,13.3037,4.60013,2469.83,2020-1-27T05:26:40Z
2020-01-27T03:29:10Z,42.805,6.029,13.3031,4.60024,2469.83,2020-1-27T05:29:43Z
2020-01-27T03:32:13Z,42.805,6.029,13.3041,4.60020,2469.821,2020-1-27T05:32:47Z
2020-01-27T03:35:16Z,42.805,6.029,13.3037,4.60003,2469.83,2020-1-27T05:35:50Z
2020-01-27T03:38:20Z,42.805,6.029,13.3035,4.60015,2469.867,2020-1-27T05:38:53Z
2020-01-27T03:41:23Z,42.805,6.029,13.3043,4.60026,2469.844,2020-1-27T05:41:56Z
2020-01-27T03:44:26Z,42.805,6.029,13.3027,4.60004,2469.844,2020-1-27T05:44:59Z
2020-01-27T03:47:29Z,42.805,6.029,13.3047,4.60006,2469.806,2020-1-27T05:48:03Z
2020-01-27T03:50:32Z,42.805,6.029,13.3041,4.59996,2469.821,2020-1-27T05:51:06Z
2020-01-27T03:53:35Z,42.805,6.029,13.3018,4.60036,2469.844,2020-1-27T05:54:09Z
2020-01-27T03:56:39Z,42.805,6.029,13.3016,4.60032,2469.844,2020-1-27T05:57:12Z
2020-01-27T03:59:42Z,42.805,6.029,13.3031,4.60006,2469.867,2020-1-27T06:00:15Z
2020-01-27T04:02:45Z,42.805,6.029,13.3058,4.60004,2469.844,2020-1-27T06:03:18Z
2020-01-27T04:05:48Z,42.805,6.029,13.3037,4.60015,2469.844,2020-1-27T06:06:22Z
2020-01-27T04:08:51Z,42.805,6.029,13.3042,4.60026,2469.876,2020-1-27T06:09:25Z
2020-01-27T04:11:55Z,42.805,6.029,13.3053,4.60003,2469.83,2020-1-27T06:12:28Z
2020-01-27T04:14:58Z,42.805,6.029,13.3045,4.60017,2469.844,2020-1-27T06:15:31Z
2020-01-27T04:18:01Z,42.805,6.029,13.3031,4.60000,2469.844,2020-1-27T06:18:34Z
2020-01-27T04:21:04Z,42.805,6.029,13.3036,4.60002,2469.844,2020-1-27T06:21:38Z
2020-01-27T04:24:07Z,42.805,6.029,13.3037,4.60010,2469.867,2020-1-27T06:24:41Z
2020-01-27T04:27:11Z,42.805,6.029,13.3027,4.60002,2469.867,2020-1-27T06:27:44Z
2020-01-27T04:30:14Z,42.805,6.029,13.3025,4.60001,2469.867,2020-1-27T06:30:47Z
2020-01-27T04:33:17Z,42.805,6.029,13.3036,4.60009,2469.876,2020-1-27T06:33:50Z
2020-01-27T04:36:20Z,42.805,6.029,13.3011,4.60010,2469.867,2020-1-27T06:36:54Z
2020-01-27T04:39:23Z,42.805,6.029,13.3022,4.60012,2469.853,2020-1-27T06:39:57Z
2020-01-27T04:42:27Z,42.805,6.029,13.3022,4.60011,2469.867,2020-1-27T06:43:00Z
2020-01-27T04:45:30Z,42.805,6.029,13.3020,4.60005,2469.867,2020-1-27T06:46:03Z
2020-01-27T04:48:33Z,42.805,6.029,13.3028,4.60001,2469.867,2020-1-27T06:49:06Z
2020-01-27T04:51:36Z,42.805,6.029,13.3035,4.59998,2469.853,2020-1-27T06:52:09Z
2020-01-27T04:54:39Z,42.805,6.029,13.3026,4.59996,2469.876,2020-1-27T06:55:13Z
2020-01-27T04:57:42Z,42.805,6.029,13.3027,4.59998,2469.914,2020-1-27T06:58:16Z
2020-01-27T05:00:46Z,42.805,6.029,13.3031,4.60006,2469.89,2020-1-27T07:01:19Z
2020-01-27T05:03:49Z,42.805,6.029,13.3041,4.60014,2469.89,2020-1-27T07:04:22Z
2020-01-27T05:06:52Z,42.805,6.029,13.3030,4.60026,2469.9,2020-1-27T07:07:25Z
2020-01-27T05:09:55Z,42.805,6.029,13.3051,4.60010,2469.914,2020-1-27T07:10:29Z
2020-01-27T05:12:58Z,42.805,6.029,13.3021,4.60017,2469.904,2020-1-27T07:13:32Z
2020-01-27T05:16:02Z,42.805,6.029,13.3036,4.60008,2469.876,2020-1-27T07:16:35Z
2020-01-27T05:19:05Z,42.805,6.029,13.3007,4.60011,2469.89,2020-1-27T07:19:38Z
2020-01-27T05:22:08Z,42.805,6.029,13.3031,4.60011,2469.914,2020-1-27T07:22:41Z
2020-01-27T05:25:11Z,42.805,6.029,13.3033,4.60006,2469.9,2020-1-27T07:25:45Z
2020-01-27T05:28:14Z,42.805,6.029,13.3055,4.59996,2469.937,2020-1-27T07:28:48Z
2020-01-27T05:31:18Z,42.805,6.029,13.3061,4.60005,2469.914,2020-1-27T07:31:51Z
2020-01-27T05:34:21Z,42.805,6.029,13.3033,4.60007,2469.923,2020-1-27T07:34:54Z
2020-01-27T05:37:24Z,42.805,6.029,13.3023,4.60013,2469.914,2020-1-27T07:37:57Z
2020-01-27T05:40:27Z,42.805,6.029,13.3039,4.60014,2469.886,2020-1-27T07:41:01Z
2020-01-27T05:43:30Z,42.805,6.029,13.3029,4.60001,2469.937,2020-1-27T07:44:04Z
2020-01-27T05:46:34Z,42.805,6.029,13.3032,4.60014,2469.96,2020-1-27T07:47:07Z
2020-01-27T05:49:37Z,42.805,6.029,13.3054,4.60007,2469.937,2020-1-27T07:50:10Z
2020-01-27T05:52:40Z,42.805,6.029,13.3036,4.59999,2469.96,2020-1-27T07:53:13Z
2020-01-27T05:55:43Z,42.805,6.029,13.3032,4.60003,2469.923,2020-1-27T07:56:16Z
2020-01-27T05:58:46Z,42.805,6.029,13.3035,4.60000,2469.947,2020-1-27T07:59:20Z
2020-01-27T06:01:49Z,42.805,6.029,13.3037,4.59995,2469.923,2020-1-27T08:02:23Z
2020-01-27T06:04:53Z,42.805,6.029,13.3025,4.60007,2469.914,2020-1-27T08:05:26Z
2020-01-27T06:07:56Z,42.805,6.029,13.3034,4.60010,2469.96,2020-1-27T08:08:29Z
2020-01-27T06:10:59Z,42.805,6.029,13.3036,4.60009,2470.007,2020-1-27T08:11:33Z
2020-01-27T06:14:02Z,42.805,6.029,13.3045,4.60007,2469.97,2020-1-27T08:14:36Z
2020-01-27T06:17:06Z,42.805,6.029,13.3036,4.59999,2469.984,2020-1-27T08:17:39Z
2020-01-27T06:20:09Z,42.805,6.029,13.3012,4.60011,2469.97,2020-1-27T08:20:42Z
2020-01-27T06:23:12Z,42.805,6.029,13.3014,4.60001,2469.984,2020-1-27T08:23:45Z
2020-01-27T06:26:15Z,42.805,6.029,13.3008,4.60026,2469.97,2020-1-27T08:26:49Z
2020-01-27T06:29:18Z,42.805,6.029,13.3033,4.59994,2469.984,2020-1-27T08:29:52Z
2020-01-27T06:32:22Z,42.805,6.029,13.3002,4.59996,2469.984,2020-1-27T08:32:55Z
2020-01-27T06:35:25Z,42.805,6.029,13.3058,4.60020,2469.993,2020-1-27T08:35:58Z
2020-01-27T06:38:28Z,42.805,6.029,13.3051,4.60026,2469.97,2020-1-27T08:39:01Z
2020-01-27T06:41:31Z,42.805,6.029,13.3051,4.60005,2470.03,2020-1-27T08:42:05Z
2020-01-27T06:44:34Z,42.805,6.029,13.3019,4.60023,2469.984,2020-1-27T08:45:08Z
2020-01-27T06:47:38Z,42.805,6.029,13.3014,4.59990,2469.97,2020-1-27T08:48:11Z
2020-01-27T06:50:41Z,42.805,6.029,13.3006,4.60026,2470.007,2020-1-27T08:51:14Z
2020-01-27T06:53:44Z,42.805,6.029,13.3009,4.59998,2469.984,2020-1-27T08:54:17Z
2020-01-27T06:56:47Z,42.805,6.029,13.3031,4.60016,2469.984,2020-1-27T08:57:21Z
2020-01-27T06:59:50Z,42.805,6.029,13.3015,4.60012,2470.007,2020-1-27T09:00:24Z
2020-01-27T07:02:54Z,42.805,6.029,13.3016,4.59997,2470.007,2020-1-27T09:03:27Z
2020-01-27T07:05:57Z,42.805,6.029,13.3013,4.59995,2470.017,2020-1-27T09:06:30Z
2020-01-27T07:09:00Z,42.805,6.029,13.3017,4.59995,2470.007,2020-1-27T09:09:33Z
2020-01-27T07:12:03Z,42.805,6.029,13.3024,4.60019,2470.03,2020-1-27T09:12:36Z
2020-01-27T07:15:06Z,42.805,6.029,13.3017,4.59994,2470.03,2020-1-27T09:15:40Z
2020-01-27T07:18:09Z,42.805,6.029,13.3019,4.60013,2470.017,2020-1-27T09:18:43Z
2020-01-27T07:21:13Z,42.805,6.029,13.3029,4.60006,2470.017,2020-1-27T09:21:46Z
2020-01-27T07:24:16Z,42.805,6.029,13.3001,4.60011,2470.017,2020-1-27T09:24:49Z
2020-01-27T07:27:19Z,42.805,6.029,13.3017,4.60019,2470.053,2020-1-27T09:27:52Z
2020-01-27T07:30:22Z,42.805,6.029,13.3000,4.60004,2470.053,2020-1-27T09:30:56Z
2020-01-27T07:33:25Z,42.805,6.029,13.3042,4.59996,2470.007,2020-1-27T09:33:59Z
2020-01-27T07:36:29Z,42.805,6.029,13.3014,4.60009,2470.053,2020-1-27T09:37:02Z
2020-01-27T07:39:32Z,42.805,6.029,13.3024,4.60011,2470.04,2020-1-27T09:40:05Z
2020-01-27T07:42:35Z,42.805,6.029,13.3037,4.60001,2470.053,2020-1-27T09:43:08Z
2020-01-27T07:45:38Z,42.805,6.029,13.3031,4.60009,2470.017,2020-1-27T09:46:12Z
2020-01-27T07:48:41Z,42.805,6.029,13.3011,4.60021,2470.077,2020-1-27T09:49:15Z
2020-01-27T07:51:45Z,42.805,6.029,13.3019,4.60001,2470.053,2020-1-27T09:52:18Z
2020-01-27T07:54:48Z,42.805,6.029,13.3004,4.59992,2470.063,2020-1-27T09:55:21Z
2020-01-27T07:57:51Z,42.805,6.029,13.3014,4.60014,2470.04,2020-1-27T09:58:24Z
2020-01-27T08:00:54Z,42.805,6.029,13.2994,4.60002,2470.077,2020-1-27T10:01:28Z
2020-01-27T08:03:57Z,42.805,6.029,13.2993,4.60001,2470.04,2020-1-27T10:04:31Z
2020-01-27T08:07:00Z,42.805,6.029,13.2991,4.60006,2470.063,2020-1-27T10:07:34Z
2020-01-27T08:10:04Z,42.805,6.029,13.3006,4.60026,2470.077,2020-1-27T10:10:37Z
2020-01-27T08:13:07Z,42.805,6.029,13.3015,4.60022,2470.077,2020-1-27T10:13:40Z
2020-01-27T08:16:10Z,42.805,6.029,13.3006,4.60021,2470.053,2020-1-27T10:16:43Z
2020-01-27T08:19:13Z,42.805,6.029,13.3000,4.59991,2470.1,2020-1-27T10:19:47Z
2020-01-27T08:22:16Z,42.805,6.029,13.3029,4.60000,2470.077,2020-1-27T10:22:50Z
2020-01-27T08:25:20Z,42.805,6.029,13.2995,4.59996,2470.063,2020-1-27T10:25:53Z
2020-01-27T08:28:23Z,42.805,6.029,13.2983,4.60011,2470.053,2020-1-27T10:28:57Z
2020-01-27T08:31:27Z,42.805,6.029,13.2997,4.60005,2470.053,2020-1-27T10:32:00Z
2020-01-27T08:34:30Z,42.805,6.029,13.2998,4.60002,2470.077,2020-1-27T10:35:03Z
2020-01-27T08:37:33Z,42.805,6.029,13.3025,4.59988,2470.063,2020-1-27T10:38:06Z
2020-01-27T08:40:36Z,42.805,6.029,13.3013,4.59982,2470.077,2020-1-27T10:41:10Z
2020-01-27T08:43:39Z,42.805,6.029,13.2996,4.59997,2470.087,2020-1-27T10:44:13Z
2020-01-27T08:46:43Z,42.805,6.029,13.2996,4.60019,2470.077,2020-1-27T10:47:16Z
2020-01-27T08:49:46Z,42.805,6.029,13.2999,4.60001,2470.077,2020-1-27T10:50:20Z
2020-01-27T08:52:49Z,42.805,6.029,13.2991,4.59998,2470.077,2020-1-27T10:53:23Z
2020-01-27T08:55:53Z,42.805,6.029,13.2986,4.60010,2470.087,2020-1-27T10:56:26Z
2020-01-27T08:58:56Z,42.805,6.029,13.3029,4.60010,2470.077,2020-1-27T10:59:29Z
2020-01-27T09:01:59Z,42.805,6.029,13.2993,4.59996,2470.063,2020-1-27T11:02:32Z
2020-01-27T09:05:02Z,42.805,6.029,13.3021,4.60003,2470.053,2020-1-27T11:05:36Z
2020-01-27T09:08:05Z,42.805,6.029,13.2979,4.60032,2470.077,2020-1-27T11:08:39Z
2020-01-27T09:11:08Z,42.805,6.029,13.2989,4.60005,2470.063,2020-1-27T11:11:42Z
2020-01-27T09:14:12Z,42.805,6.029,13.2998,4.60001,2470.1,2020-1-27T11:14:45Z
2020-01-27T09:17:15Z,42.805,6.029,13.2982,4.60013,2470.087,2020-1-27T11:17:48Z
2020-01-27T09:20:18Z,42.805,6.029,13.3006,4.60008,2470.087,2020-1-27T11:20:52Z
2020-01-27T09:23:21Z,42.805,6.029,13.3013,4.60000,2470.1,2020-1-27T11:23:55Z
2020-01-27T09:26:25Z,42.805,6.029,13.2991,4.60001,2470.077,2020-1-27T11:26:58Z
2020-01-27T09:29:28Z,42.805,6.029,13.2989,4.59998,2470.063,2020-1-27T11:30:01Z
2020-01-27T09:32:31Z,42.805,6.029,13.2988,4.59994,2470.04,2020-1-27T11:33:04Z
2020-01-27T09:35:34Z,42.805,6.029,13.2986,4.60000,2470.087,2020-1-27T11:36:07Z
2020-01-27T09:38:37Z,42.805,6.029,13.2986,4.59988,2470.063,2020-1-27T11:39:11Z
2020-01-27T09:41:40Z,42.805,6.029,13.2989,4.59995,2470.063,2020-1-27T11:42:14Z
2020-01-27T09:44:44Z,42.805,6.029,13.2996,4.59993,2470.077,2020-1-27T11:45:17Z
2020-01-27T09:47:47Z,42.805,6.029,13.2993,4.59986,2470.1,2020-1-27T11:48:20Z
2020-01-27T09:50:50Z,42.805,6.029,13.2989,4.59998,2470.087,2020-1-27T11:51:24Z
2020-01-27T09:53:53Z,42.805,6.029,13.2983,4.59987,2470.124,2020-1-27T11:54:27Z
2020-01-27T09:56:56Z,42.805,6.029,13.2989,4.59994,2470.063,2020-1-27T11:57:30Z
2020-01-27T10:00:00Z,42.805,6.029,13.2984,4.60010,2470.049,2020-1-27T12:00:33Z
2020-01-27T10:03:03Z,42.805,6.029,13.2985,4.59997,2470.087,2020-1-27T12:03:36Z
2020-01-27T10:06:06Z,42.805,6.029,13.2979,4.60009,2470.087,2020-1-27T12:06:39Z
2020-01-27T10:09:09Z,42.805,6.029,13.2986,4.59988,2470.077,2020-1-27T12:09:43Z
2020-01-27T10:12:12Z,42.805,6.029,13.2986,4.59989,2470.063,2020-1-27T12:12:46Z
2020-01-27T10:15:16Z,42.805,6.029,13.2987,4.59983,2470.087,2020-1-27T12:15:49Z
2020-01-27T10:18:19Z,42.805,6.029,13.2995,4.59991,2470.063,2020-1-27T12:18:52Z
2020-01-27T10:21:22Z,42.805,6.029,13.2993,4.59983,2470.04,2020-1-27T12:21:55Z
2020-01-27T10:24:25Z,42.805,6.029,13.2986,4.59989,2470.077,2020-1-27T12:24:59Z
2020-01-27T10:27:28Z,42.805,6.029,13.2994,4.59982,2470.04,2020-1-27T12:28:02Z
2020-01-27T10:30:32Z,42.805,6.029,13.2990,4.60019,2470.04,2020-1-27T12:31:05Z
2020-01-27T10:33:35Z,42.805,6.029,13.3005,4.59979,2470.087,2020-1-27T12:34:08Z
2020-01-27T10:36:38Z,42.805,6.029,13.2986,4.59986,2470.077,2020-1-27T12:37:12Z
2020-01-27T10:39:41Z,42.805,6.029,13.2991,4.59983,2470.077,2020-1-27T12:40:15Z
2020-01-27T10:42:45Z,42.805,6.029,13.2986,4.59991,2470.04,2020-1-27T12:43:18Z
2020-01-27T10:45:48Z,42.805,6.029,13.2986,4.59990,2470.077,2020-1-27T12:46:21Z
2020-01-27T10:48:51Z,42.805,6.029,13.2986,4.59991,2470.04,2020-1-27T12:49:24Z
2020-01-27T10:51:54Z,42.805,6.029,13.2987,4.59983,2470.063,2020-1-27T12:52:28Z
2020-01-27T10:54:57Z,42.805,6.029,13.2992,4.59981,2470.04,2020-1-27T12:55:31Z
2020-01-27T10:58:01Z,42.805,6.029,13.2982,4.59987,2470.04,2020-1-27T12:58:34Z
2020-01-27T11:01:04Z,42.805,6.029,13.2991,4.59995,2470.017,2020-1-27T13:01:37Z
2020-01-27T11:04:07Z,42.805,6.029,13.2983,4.59978,2470.04,2020-1-27T13:04:41Z
2020-01-27T11:07:10Z,42.805,6.029,13.2979,4.59996,2470.04,2020-1-27T13:07:44Z
2020-01-27T11:10:14Z,42.805,6.029,13.2994,4.59989,2470.04,2020-1-27T13:10:47Z
2020-01-27T11:13:17Z,42.805,6.029,13.2990,4.59986,2470.03,2020-1-27T13:13:50Z
2020-01-27T11:16:20Z,42.805,6.029,13.2978,4.59986,2470.04,2020-1-27T13:16:53Z
2020-01-27T11:19:23Z,42.805,6.029,13.2984,4.59979,2470.03,2020-1-27T13:19:56Z
2020-01-27T11:22:27Z,42.805,6.029,13.2985,4.59990,2470.053,2020-1-27T13:23:00Z
2020-01-27T11:25:30Z,42.805,6.029,13.2974,4.59987,2470.021,2020-1-27T13:26:03Z
2020-01-27T11:28:33Z,42.805,6.029,13.2983,4.59990,2470.053,2020-1-27T13:29:07Z
2020-01-27T11:31:36Z,42.805,6.029,13.2997,4.59986,2470.03,2020-1-27T13:32:10Z
2020-01-27T11:34:39Z,42.805,6.029,13.2993,4.59986,2470.007,2020-1-27T13:35:13Z
2020-01-27T11:37:43Z,42.805,6.029,13.3002,4.59985,2469.979,2020-1-27T13:38:16Z
2020-01-27T11:40:46Z,42.805,6.029,13.2986,4.59983,2470.03,2020-1-27T13:41:19Z
2020-01-27T11:43:49Z,42.805,6.029,13.2996,4.59981,2470.017,2020-1-27T13:44:23Z
2020-01-27T11:46:52Z,42.805,6.029,13.2997,4.59981,2470.03,2020-1-27T13:47:26Z
2020-01-27T11:49:56Z,42.805,6.029,13.2983,4.59988,2470.007,2020-1-27T13:50:29Z
2020-01-27T11:52:59Z,42.805,6.029,13.2983,4.59985,2469.993,2020-1-27T13:53:32Z
2020-01-27T11:56:02Z,42.805,6.029,13.2990,4.59988,2470.03,2020-1-27T13:56:35Z
2020-01-27T11:59:05Z,42.805,6.029,13.2988,4.59983,2469.96,2020-1-27T13:59:38Z
2020-01-27T12:02:08Z,42.805,6.029,13.2987,4.59983,2469.984,2020-1-27T14:02:42Z
2020-01-27T12:05:11Z,42.805,6.029,13.2986,4.59992,2469.97,2020-1-27T14:05:45Z
2020-01-27T12:08:15Z,42.805,6.029,13.2984,4.59989,2470.007,2020-1-27T14:08:48Z
2020-01-27T12:11:18Z,42.805,6.029,13.2993,4.59986,2469.984,2020-1-27T14:11:51Z
2020-01-27T12:14:21Z,42.805,6.029,13.2985,4.59976,2469.993,2020-1-27T14:14:54Z
2020-01-27T12:17:24Z,42.805,6.029,13.2982,4.59980,2469.984,2020-1-27T14:17:58Z
2020-01-27T12:20:27Z,42.805,6.029,13.2990,4.59983,2469.947,2020-1-27T14:21:01Z
2020-01-27T12:23:31Z,42.805,6.029,13.2997,4.59978,2469.97,2020-1-27T14:24:04Z
2020-01-27T12:26:34Z,42.805,6.029,13.2980,4.59983,2469.947,2020-1-27T14:27:07Z
2020-01-27T12:29:37Z,42.805,6.029,13.2984,4.59993,2469.947,2020-1-27T14:30:10Z
2020-01-27T12:32:40Z,42.805,6.029,13.2979,4.59986,2469.96,2020-1-27T14:33:14Z
2020-01-27T12:35:43Z,42.805,6.029,13.2982,4.59991,2469.923,2020-1-27T14:36:17Z
2020-01-27T12:38:47Z,42.805,6.029,13.2983,4.59984,2469.96,2020-1-27T14:39:20Z
2020-01-27T12:41:50Z,42.805,6.029,13.2979,4.59986,2469.947,2020-1-27T14:42:23Z
2020-01-27T12:44:53Z,42.805,6.029,13.2993,4.59984,2469.96,2020-1-27T14:45:26Z
2020-01-27T12:47:56Z,42.805,6.029,13.2982,4.59990,2469.937,2020-1-27T14:48:29Z
2020-01-27T12:50:59Z,42.805,6.029,13.2982,4.59991,2469.984,2020-1-27T14:51:33Z
2020-01-27T12:54:02Z,42.805,6.029,13.2986,4.59983,2469.923,2020-1-27T14:54:36Z
2020-01-27T12:57:06Z,42.805,6.029,13.2986,4.59986,2469.947,2020-1-27T14:57:39Z
2020-01-27T13:00:09Z,42.805,6.029,13.2988,4.59988,2469.947,2020-1-27T15:00:42Z
2020-01-27T13:03:12Z,42.805,6.029,13.2984,4.59981,2469.9,2020-1-27T15:03:45Z
2020-01-27T13:06:15Z,42.805,6.029,13.2986,4.59981,2469.923,2020-1-27T15:06:49Z
2020-01-27T13:09:18Z,42.805,6.029,13.2985,4.59982,2469.876,2020-1-27T15:09:52Z
2020-01-27T13:12:22Z,42.805,6.029,13.2983,4.59981,2469.947,2020-1-27T15:12:55Z
2020-01-27T13:15:25Z,42.805,6.029,13.2982,4.59982,2469.937,2020-1-27T15:15:58Z
2020-01-27T13:18:28Z,42.805,6.029,13.2986,4.59976,2469.9,2020-1-27T15:19:01Z
2020-01-27T13:21:31Z,42.805,6.029,13.2988,4.59987,2469.876,2020-1-27T15:22:05Z
2020-01-27T13:24:34Z,42.805,6.029,13.2982,4.59984,2469.937,2020-1-27T15:25:08Z
2020-01-27T13:27:38Z,42.805,6.029,13.2988,4.59980,2469.937,2020-1-27T15:28:11Z
2020-01-27T13:30:41Z,42.805,6.029,13.2993,4.59979,2469.914,2020-1-27T15:31:14Z
2020-01-27T13:33:44Z,42.805,6.029,13.2978,4.59977,2469.937,2020-1-27T15:34:17Z
2020-01-27T13:36:47Z,42.805,6.029,13.2986,4.59980,2469.89,2020-1-27T15:37:21Z
2020-01-27T13:39:50Z,42.805,6.029,13.2983,4.59982,2469.9,2020-1-27T15:40:24Z
2020-01-27T13:42:54Z,42.805,6.029,13.2984,4.59976,2469.853,2020-1-27T15:43:27Z
2020-01-27T13:45:57Z,42.805,6.029,13.2985,4.59982,2469.9,2020-1-27T15:46:30Z
2020-01-27T13:49:00Z,42.805,6.029,13.2986,4.59982,2469.9,2020-1-27T15:49:33Z
2020-01-27T13:52:03Z,42.805,6.029,13.2989,4.59983,2469.89,2020-1-27T15:52:37Z
2020-01-27T13:55:06Z,42.805,6.029,13.2991,4.59986,2469.89,2020-1-27T15:55:40Z
2020-01-27T13:58:10Z,42.805,6.029,13.2987,4.59984,2469.923,2020-1-27T15:58:43Z
2020-01-27T14:01:13Z,42.805,6.029,13.2990,4.59981,2469.914,2020-1-27T16:01:46Z
2020-01-27T14:04:16Z,42.805,6.029,13.2986,4.59984,2469.923,2020-1-27T16:04:49Z
2020-01-27T14:07:19Z,42.805,6.029,13.2988,4.59978,2469.89,2020-1-27T16:07:53Z
2020-01-27T14:10:22Z,42.805,6.029,13.2986,4.59983,2469.876,2020-1-27T16:10:56Z
2020-01-27T14:13:25Z,42.805,6.029,13.2993,4.59982,2469.914,2020-1-27T16:13:59Z
2020-01-27T14:16:29Z,42.805,6.029,13.2985,4.59980,2469.9,2020-1-27T16:17:02Z
2020-01-27T14:19:32Z,42.805,6.029,13.2986,4.59988,2469.9,2020-1-27T16:20:05Z
2020-01-27T14:22:35Z,42.805,6.029,13.2982,4.59978,2469.9,2020-1-27T16:23:08Z
2020-01-27T14:25:38Z,42.805,6.029,13.2988,4.59983,2469.853,2020-1-27T16:26:12Z
2020-01-27T14:28:41Z,42.805,6.029,13.2980,4.59981,2469.89,2020-1-27T16:29:15Z
2020-01-27T14:31:45Z,42.805,6.029,13.2982,4.59988,2469.876,2020-1-27T16:32:18Z
2020-01-27T14:34:48Z,42.805,6.029,13.2988,4.59982,2469.853,2020-1-27T16:35:21Z
2020-01-27T14:37:51Z,42.805,6.029,13.2998,4.59992,2469.867,2020-1-27T16:38:24Z
2020-01-27T14:40:54Z,42.805,6.029,13.2987,4.59988,2469.876,2020-1-27T16:41:28Z
2020-01-27T14:43:57Z,42.805,6.029,13.2993,4.59987,2469.89,2020-1-27T16:44:31Z
2020-01-27T14:47:01Z,42.805,6.029,13.2992,4.59983,2469.867,2020-1-27T16:47:34Z
2020-01-27T14:50:04Z,42.805,6.029,13.2991,4.59981,2469.876,2020-1-27T16:50:37Z
2020-01-27T14:53:07Z,42.805,6.029,13.2979,4.59974,2469.89,2020-1-27T16:53:40Z
2020-01-27T14:56:10Z,42.805,6.029,13.2983,4.59981,2469.853,2020-1-27T16:56:44Z
2020-01-27T14:59:13Z,42.805,6.029,13.2980,4.59979,2469.853,2020-1-27T16:59:47Z
2020-01-27T15:02:17Z,42.805,6.029,13.2987,4.59987,2469.83,2020-1-27T17:02:50Z
2020-01-27T15:05:20Z,42.805,6.029,13.2982,4.59977,2469.853,2020-1-27T17:05:53Z
2020-01-27T15:08:23Z,42.805,6.029,13.2991,4.59981,2469.83,2020-1-27T17:08:56Z
2020-01-27T15:11:26Z,42.805,6.029,13.2985,4.59981,2469.89,2020-1-27T17:12:00Z
2020-01-27T15:14:30Z,42.805,6.029,13.2986,4.59979,2469.844,2020-1-27T17:15:03Z